Погода в Гаврилове

Россия / Калининградская область     54°23′45″N   22°14′20″E
В апреле 2022 года жителям России запретили посещать сайт meteo.paraplan.net по решению Генеральной прокуратуры. Аудитория сайта уменьшилась в 10 раз. Владельцы сайта не видят смысла в поддержке погодного сервера в таких условиях. Сайт будет закрыт в октябре.
темп.,
°C
ветер,
м/с
пор.,
м/с
влажн.,
%
обл.,
%
осадки,
мм/ч
давл.,
гПа
погр.,
м
25 сентября, вс
вс2523:00+7зюз11875 0.0 101610
02:00+7ююз1188100 0.0 101610
05:00+7ююз118897 0.0 101510
08:00+10юз1180100 0.0 101555
11:00+14зюз126197 0.0 1014583
14:00+16зюз1250100 0.1 10121476
17:00+15з1157100 0.1 101111
20:00+11юв1165100 0.1 101111
26 сентября, пн
пн2623:00+9ююв336694 0.0 101045
02:00+11ю356699 0.0 1008120
05:00+9ю357554 0.0 100782
08:00+10ю477456 0.0 1007202
11:00+14ююз456098 0.0 1007524
14:00+14з1166100 0.0 100648
17:00+15ю2467100 0.1 1005114
20:00+12ююв3475100 0.1 100656
27 сентября, вт
вт2723:00+12ю347886 0.1 100682
02:00+11ю118496 0.1 100411
05:00+10юв118783 0.0 100411
08:00+11юв248393 0.0 1003139
11:00+16юв456778 0.0 1003723
14:00+17вюв4466100 1.0 10011038
17:00+15вюв3776100 1.6 1001249
20:00+12вюв3685100 1.6 1001129
28 сентября, ср
ср2823:00+11в2492100 0.4 1000109
02:00+11св2499100 5.9 998210
05:00+11св3598100 6.3 997275
08:00+10ссв2398100 10.6 996250
11:00+11ссз0195100 0.5 995267
14:00+11зюз61093100 0.7 996717
17:00+10зюз61291100 0.5 997713
20:00+8ююз389364 0.6 999159
29 сентября, чт
чт2923:00+8ю410885 0.0 1000205
02:00+9ю5118396 0.1 1001333
05:00+8ю41092100 1.1 1002427
08:00+9ююз611905 1.3 1003560
11:00+13ююз687045 0.0 10041155
14:00+14ююз695573 0.1 10051835
17:00+13ю486199 0.0 1005284
20:00+10ю377699 0.1 1007122